Regional Weather Roundup
Issued by NWS

Home | Current Version | Previous Version | Text Only | Print | Product List | Glossary On
Versions: 1 2 3 4 5 6 7 8 9 10 11 12 13 14 15 16 17 18 19 20 21 22 23 24 25 26 27 28 29 30 31 32 33 34 35 36 37 38 39 40 41 42 43 44 45 46 47 48 49 50
000
ASUS42 KKEY 250010
RWRKEY

FLORIDA REGIONAL WEATHER ROUNDUP FOR THE FLORIDA KEYS
NATIONAL WEATHER SERVICE KEY WEST FLORIDA
800 PM EDT SUN MAY 24 2015

...SOUTH FLORIDA AND THE KEYS...

CITY           SKY/WX    TMP DP  RH WIND       PRES   REMARKS
FORT MYERS     LGT RAIN  77  74  90 MISG      30.10R
SW REGIONAL AP TSTM      79  73  82 SW6       30.09R
NAPLES         MOCLDY    84  73  69 SE5       30.09R HX  90
MIAMI          MOCLDY    82  70  66 E16       30.12R
WEST KENDALL   MOCLDY    82  71  69 E14       30.11R
HOMESTEAD      MOCLDY    82  71  69 E13       30.10R
MARATHON       PTCLDY    83  74  74 E10       30.08R
BOCA CHICA NAS CLEAR     83  72  69 E18       30.08R
KEY WEST INTL  CLEAR     83  73  72 E18       30.08R

...INTERNATIONAL WEATHER...

CITY           SKY/WX    TMP DP  RH WIND       PRES   REMARKS
NASSAU BAHAMAS SHOWER    82  75  78 E8        30.13R
CANCUN MEXICO  PTCLDY    84  75  74 E10       29.99R HX  92
COZUMEL MEXICO MOCLDY    81  73  78 SE10      29.98S

ADJACENT COASTAL WATERS...

STATION/POSITION TIME  SKY/WX   TEMP    WIND        PRES    WAVE
                                AIR SEA DIR/SP/G            HT/PER
                 (UTC)          (F)     (DEG/KT/KT) (MB)    (FT/S)
PULASKI SHOAL LI 2300            83     130/ 15/ 16 1018.0S
SAND KEY         2350            82     100/ 17/ 19 1018.3R
SOMBRERO KEY     0000            82      80/ 17/ 18 1019.2R
LONG KEY         2300            82 86   80/ 15/ 17 1019.2F
MOLASSES REEF    0000            81 83   80/ 16/ 19 1019.0R
FOWEY ROCKS      NOT AVBL

$$


USA.gov is the U.S. government's official web portal to all federal, state and local government web resources and services.